"Sample Date","Sample Time","Sample Value","Units","Flow Rate","Sample Interval","Number Channels","Micron Size 0","Counts/Channel 0","Micron Size 1","Counts/Channel 1","Micron Size 2","Counts/Channel 2","Micron Size 3","Counts/Channel 3","Micron Size 4","Counts/Channel 4","Micron Size 5","Counts/Channel 5","Micron Size 6","Counts/Channel 6","Micron Size 7","Counts/Channel 7","Micron Size 8","Counts/Channel 8","Micron Size 9","Counts/Channel 9","Micron Size 10","Counts/Channel 10","Micron Size 11","Counts/Channel 11","Micron Size 12","Counts/Channel 12","Micron Size 13","Counts/Channel 13","Micron Size 14","Counts/Channel 14","Micron Size 15","Counts/Channel 15","Micron Size 16","Counts/Channel 16","Micron Size 17","Counts/Channel 17","Micron Size 18","Counts/Channel 18","Micron Size 19","Counts/Channel 19","Micron Size 20","Counts/Channel 20","Micron Size 21","Counts/Channel 21","Micron Size 22","Counts/Channel 22","Micron Size 23","Counts/Channel 23","Micron Size 24","Counts/Channel 24","Micron Size 25","Counts/Channel 25","Micron Size 26","Counts/Channel 26","Micron Size 27","Counts/Channel 27","Micron Size 28","Counts/Channel 28","Micron Size 29","Counts/Channel 29","Micron Size 30","Counts/Channel 30","Micron Size 31","Counts/Channel 31"
"04/02/08","18:00:01",250795.000,"cc",28332.877,6.00,6,0.100,223407.000,0.200,23421.000,0.300,2215.000,0.500,1308.000,1.000,444.000,5.000,0
"04/02/08","18:00:07",271582.000,"cc",28293.158,6.00,6,0.100,241646.000,0.200,25902.000,0.300,2203.000,0.500,1375.000,1.000,456.000,5.000,0
"04/02/08","18:00:13",389819.000,"cc",28313.199,6.00,6,0.100,339067.000,0.200,45822.000,0.300,3147.000,0.500,1357.000,1.000,426.000,5.000,0
"04/02/08","18:00:19",242199.000,"cc",28375.320,6.00,6,0.100,161450.000,0.200,74146.000,0.300,4713.000,0.500,1390.000,1.000,500.000,5.000,0
"04/02/08","18:00:25",199771.000,"cc",28354.588,6.00,6,0.100,127875.000,0.200,65603.000,0.300,4308.000,0.500,1514.000,1.000,471.000,5.000,0
"04/02/08","18:00:31",288889.000,"cc",28281.240,6.00,6,0.100,230901.000,0.200,52679.000,0.300,3519.000,0.500,1380.000,1.000,410.000,5.000,0
"04/02/08","18:00:37",344246.000,"cc",28338.510,6.00,6,0.100,288742.000,0.200,50385.000,0.300,3362.000,0.500,1316.000,1.000,441.000,5.000,0
"04/02/08","18:00:43",333945.000,"cc",28226.205,6.00,6,0.100,279935.000,0.200,48734.000,0.300,3417.000,0.500,1375.000,1.000,484.000,5.000,0
"04/02/08","18:00:49",247681.000,"cc",28318.447,6.00,6,0.100,185115.000,0.200,56653.000,0.300,3941.000,0.500,1522.000,1.000,450.000,5.000,0
"04/02/08","18:00:55",153812.000,"cc",28341.162,6.00,6,0.100,78923.000,0.200,67254.000,0.300,5016.000,0.500,1957.000,1.000,662.000,5.000,0
"04/02/08","18:01:01",132286.000,"cc",28309.203,6.00,6,0.100,66623.000,0.200,60177.000,0.300,3757.000,0.500,1306.000,1.000,423.000,5.000,0
"04/02/08","18:01:07",291839.000,"cc",28355.639,6.00,6,0.100,235252.000,0.200,51643.000,0.300,3263.000,0.500,1280.000,1.000,401.000,5.000,0
"04/02/08","18:01:13",334898.000,"cc",28307.625,6.00,6,0.100,295416.000,0.200,35500.000,0.300,2413.000,0.500,1186.000,1.000,383.000,5.000,0
"04/02/08","18:01:19",264990.000,"cc",28313.213,6.00,6,0.100,198006.000,0.200,61286.000,0.300,3935.000,0.500,1369.000,1.000,394.000,5.000,0
"04/02/08","18:01:25",330704.000,"cc",28307.969,6.00,6,0.100,279786.000,0.200,46271.000,0.300,3055.000,0.500,1190.000,1.000,402.000,5.000,0
"04/02/08","18:01:31",300277.000,"cc",28322.887,6.00,6,0.100,242387.000,0.200,53077.000,0.300,3279.000,0.500,1131.000,1.000,403.000,5.000,0
"04/02/08","18:01:37",274746.000,"cc",28317.799,6.00,6,0.100,233871.000,0.200,36566.000,0.300,2694.000,0.500,1222.000,1.000,393.000,5.000,0
"04/02/08","18:01:43",381975.000,"cc",28284.147,6.00,6,0.100,334388.000,0.200,43013.000,0.300,2874.000,0.500,1267.000,1.000,433.000,5.000,0
"04/02/08","18:01:49",318892.000,"cc",28279.496,6.00,6,0.100,282390.000,0.200,32525.000,0.300,2348.000,0.500,1217.000,1.000,412.000,5.000,0
"04/02/08","18:01:55",298913.000,"cc",28329.678,6.00,6,0.100,253618.000,0.200,39769.000,0.300,3324.000,0.500,1644.000,1.000,558.000,5.000,0
"04/02/08","18:02:01",311191.000,"cc",28315.844,6.00,6,0.100,275291.000,0.200,31297.000,0.300,2664.000,0.500,1439.000,1.000,500.000,5.000,0
"04/02/08","18:02:07",320585.000,"cc",28335.055,6.00,6,0.100,283207.000,0.200,32608.000,0.300,2780.000,0.500,1496.000,1.000,494.000,5.000,0
"04/02/08","18:02:13",252993.000,"cc",28348.961,6.00,6,0.100,215167.000,0.200,33697.000,0.300,2537.000,0.500,1204.000,1.000,388.000,5.000,0
"04/02/08","18:02:19",284896.000,"cc",28320.746,6.00,6,0.100,244037.000,0.200,36840.000,0.300,2436.000,0.500,1193.000,1.000,390.000,5.000,0
"04/02/08","18:02:25",306921.000,"cc",28359.770,6.00,6,0.100,272589.000,0.200,30422.000,0.300,2281.000,0.500,1240.000,1.000,389.000,5.000,0
"04/02/08","18:02:31",267246.000,"cc",28283.092,6.00,6,0.100,218018.000,0.200,45063.000,0.300,2730.000,0.500,1058.000,1.000,377.000,5.000,0
"04/02/08","18:02:37",261265.000,"cc",28300.123,6.00,6,0.100,198140.000,0.200,58006.000,0.300,3410.000,0.500,1279.000,1.000,430.000,5.000,0
"04/02/08","18:02:43",383623.000,"cc",28310.658,6.00,6,0.100,336050.000,0.200,42910.000,0.300,2916.000,0.500,1295.000,1.000,452.000,5.000,0
"04/02/08","18:02:49",290891.000,"cc",28309.111,6.00,6,0.100,259422.000,0.200,27935.000,0.300,2073.000,0.500,1105.000,1.000,356.000,5.000,0
"04/02/08","18:02:55",179659.000,"cc",28353.857,6.00,6,0.100,114684.000,0.200,59738.000,0.300,3527.000,0.500,1295.000,1.000,415.000,5.000,0
"04/02/08","18:03:01",141030.000,"cc",28348.607,6.00,6,0.100,76211.000,0.200,59918.000,0.300,3388.000,0.500,1174.000,1.000,339.000,5.000,0
"04/02/08","18:03:07",304510.000,"cc",28285.156,6.00,6,0.100,259627.000,0.200,40483.000,0.300,2694.000,0.500,1286.000,1.000,420.000,5.000,0
"04/02/08","18:03:13",308657.000,"cc",28291.772,6.00,6,0.100,274942.000,0.200,29794.000,0.300,2210.000,0.500,1266.000,1.000,445.000,5.000,0
"04/02/08","18:03:19",332827.000,"cc",28310.623,6.00,6,0.100,283266.000,0.200,45052.000,0.300,2858.000,0.500,1298.000,1.000,353.000,5.000,0
"04/02/08","18:03:25",310010.000,"cc",28280.904,6.00,6,0.100,263791.000,0.200,41823.000,0.300,2800.000,0.500,1193.000,1.000,403.000,5.000,0
"04/02/08","18:03:31",331945.000,"cc",28375.875,6.00,6,0.100,293675.000,0.200,33965.000,0.300,2585.000,0.500,1301.000,1.000,419.000,5.000,0
"04/02/08","18:03:37",323729.000,"cc",28332.721,6.00,6,0.100,276547.000,0.200,42930.000,0.300,2765.000,0.500,1140.000,1.000,347.000,5.000,0
"04/02/08","18:03:43",348284.000,"cc",28298.857,6.00,6,0.100,306859.000,0.200,37322.000,0.300,2672.000,0.500,1068.000,1.000,363.000,5.000,0
"04/02/08","18:03:49",390278.000,"cc",28332.045,6.00,6,0.100,327257.000,0.200,58043.000,0.300,3468.000,0.500,1122.000,1.000,388.000,5.000,0
"04/02/08","18:03:55",335458.000,"cc",28351.754,6.00,6,0.100,285679.000,0.200,45439.000,0.300,2902.000,0.500,1077.000,1.000,361.000,5.000,0
"04/02/08","18:04:01",297087.000,"cc",28299.891,6.00,6,0.100,241169.000,0.200,51421.000,0.300,3041.000,0.500,1100.000,1.000,356.000,5.000,0
"04/02/08","18:04:07",235074.000,"cc",28302.885,6.00,6,0.100,175272.000,0.200,55055.000,0.300,3280.000,0.500,1120.000,1.000,347.000,5.000,0
"04/02/08","18:04:13",255135.000,"cc",28304.678,6.00,6,0.100,193113.000,0.200,56688.000,0.300,3534.000,0.500,1381.000,1.000,418.000,5.000,1.000
"04/02/08","18:04:19",303177.000,"cc",28323.490,6.00,6,0.100,258350.000,0.200,39796.000,0.300,3084.000,0.500,1444.000,1.000,503.000,5.000,0
"04/02/08","18:04:25",378896.000,"cc",28302.713,6.00,6,0.100,332279.000,0.200,41831.000,0.300,2970.000,0.500,1381.000,1.000,435.000,5.000,0
"04/02/08","18:04:31",286727.000,"cc",28326.570,6.00,6,0.100,243049.000,0.200,38532.000,0.300,3047.000,0.500,1589.000,1.000,510.000,5.000,0
"04/02/08","18:04:37",282007.000,"cc",28368.022,6.00,6,0.100,228329.000,0.200,48773.000,0.300,3208.000,0.500,1274.000,1.000,423.000,5.000,0
"04/02/08","18:04:43",337359.000,"cc",28305.688,6.00,6,0.100,298472.000,0.200,34728.000,0.300,2529.000,0.500,1213.000,1.000,417.000,5.000,0
"04/02/08","18:04:49",316035.000,"cc",28272.273,6.00,6,0.100,280192.000,0.200,31670.000,0.300,2466.000,0.500,1323.000,1.000,384.000,5.000,0
"04/02/08","18:04:55",303474.000,"cc",28263.529,6.00,6,0.100,268729.000,0.200,30599.000,0.300,2395.000,0.500,1323.000,1.000,428.000,5.000,0
"04/02/08","18:05:01",246715.000,"cc",28377.115,6.00,6,0.100,220422.000,0.200,22564.000,0.300,2067.000,0.500,1232.000,1.000,430.000,5.000,0
"04/02/08","18:05:07",259623.000,"cc",28304.441,6.00,6,0.100,232599.000,0.200,23815.000,0.300,1820.000,0.500,1044.000,1.000,345.000,5.000,0
"04/02/08","18:05:13",255421.000,"cc",28293.424,6.00,6,0.100,229047.000,0.200,23212.000,0.300,1787.000,0.500,1051.000,1.000,324.000,5.000,0
"04/02/08","18:05:19",209791.000,"cc",28280.729,6.00,6,0.100,188577.000,0.200,18090.000,0.300,1666.000,0.500,1095.000,1.000,363.000,5.000,0
"04/02/08","18:05:25",311866.000,"cc",28366.283,6.00,6,0.100,277678.000,0.200,30656.000,0.300,2072.000,0.500,1115.000,1.000,345.000,5.000,0
"04/02/08","18:05:31",301722.000,"cc",28337.662,6.00,6,0.100,259360.000,0.200,38373.000,0.300,2454.000,0.500,1177.000,1.000,358.000,5.000,0
"04/02/08","18:05:37",323337.000,"cc",28300.918,6.00,6,0.100,286638.000,0.200,32424.000,0.300,2478.000,0.500,1354.000,1.000,443.000,5.000,0
"04/02/08","18:05:43",366914.000,"cc",28331.455,6.00,6,0.100,323849.000,0.200,38300.000,0.300,2849.000,0.500,1455.000,1.000,461.000,5.000,0
"04/02/08","18:05:49",361540.000,"cc",28304.418,6.00,6,0.100,307164.000,0.200,49406.000,0.300,3177.000,0.500,1357.000,1.000,436.000,5.000,0
"04/02/08","18:05:55",284185.000,"cc",28282.172,6.00,6,0.100,242435.000,0.200,36800.000,0.300,2857.000,0.500,1568.000,1.000,525.000,5.000,0
"04/02/08","18:06:01",293207.000,"cc",28315.180,6.00,6,0.100,252236.000,0.200,36749.000,0.300,2586.000,0.500,1236.000,1.000,400.000,5.000,0
"04/02/08","18:06:07",187880.000,"cc",28291.248,6.00,6,0.100,141532.000,0.200,42004.000,0.300,2765.000,0.500,1193.000,1.000,386.000,5.000,0
"04/02/08","18:06:13",293281.000,"cc",28337.252,6.00,6,0.100,250816.000,0.200,37907.000,0.300,2749.000,0.500,1376.000,1.000,433.000,5.000,0
"04/02/08","18:06:19",279755.000,"cc",28377.172,6.00,6,0.100,250466.000,0.200,25261.000,0.300,2243.000,0.500,1340.000,1.000,445.000,5.000,0
"04/02/08","18:06:25",239981.000,"cc",28333.160,6.00,6,0.100,215281.000,0.200,21014.000,0.300,1986.000,0.500,1278.000,1.000,422.000,5.000,0
"04/02/08","18:06:31",331069.000,"cc",28319.805,6.00,6,0.100,293675.000,0.200,33153.000,0.300,2537.000,0.500,1276.000,1.000,428.000,5.000,0
"04/02/08","18:06:37",293301.000,"cc",28290.551,6.00,6,0.100,249389.000,0.200,39042.000,0.300,2936.000,0.500,1448.000,1.000,486.000,5.000,0
"04/02/08","18:06:43",359175.000,"cc",28285.664,6.00,6,0.100,315977.000,0.200,38488.000,0.300,2846.000,0.500,1389.000,1.000,475.000,5.000,0
"04/02/08","18:06:49",312906.000,"cc",28369.272,6.00,6,0.100,266013.000,0.200,42211.000,0.300,2902.000,0.500,1367.000,1.000,413.000,5.000,0
"04/02/08","18:06:55",290811.000,"cc",28314.516,6.00,6,0.100,257986.000,0.200,28849.000,0.300,2315.000,0.500,1232.000,1.000,429.000,5.000,0
"04/02/08","18:07:01",318969.000,"cc",28325.732,6.00,6,0.100,282405.000,0.200,32394.000,0.300,2455.000,0.500,1294.000,1.000,421.000,5.000,0
"04/02/08","18:07:07",370373.000,"cc",28325.756,6.00,6,0.100,325516.000,0.200,40370.000,0.300,2823.000,0.500,1266.000,1.000,398.000,5.000,0
"04/02/08","18:07:13",307035.000,"cc",28363.373,6.00,6,0.100,270097.000,0.200,32129.000,0.300,2809.000,0.500,1525.000,1.000,475.000,5.000,0
"04/02/08","18:07:19",289376.000,"cc",28257.320,6.00,6,0.100,239322.000,0.200,45176.000,0.300,3113.000,0.500,1337.000,1.000,428.000,5.000,0
"04/02/08","18:07:25",403122.000,"cc",28349.061,6.00,6,0.100,352043.000,0.200,45916.000,0.300,3219.000,0.500,1484.000,1.000,460.000,5.000,0
"04/02/08","18:07:31",335084.000,"cc",28320.732,6.00,6,0.100,294658.000,0.200,35088.000,0.300,3061.000,0.500,1729.000,1.000,548.000,5.000,0
"04/02/08","18:07:37",339789.000,"cc",28318.398,6.00,6,0.100,286215.000,0.200,48021.000,0.300,3495.000,0.500,1589.000,1.000,469.000,5.000,0
"04/02/08","18:07:43",265817.000,"cc",28265.592,6.00,6,0.100,199341.000,0.200,61156.000,0.300,3726.000,0.500,1216.000,1.000,378.000,5.000,0
"04/02/08","18:07:49",167789.000,"cc",28348.426,6.00,6,0.100,92944.000,0.200,69501.000,0.300,3934.000,0.500,1079.000,1.000,331.000,5.000,0
"04/02/08","18:07:55",259804.000,"cc",28340.883,6.00,6,0.100,191830.000,0.200,62568.000,0.300,3728.000,0.500,1286.000,1.000,392.000,5.000,0
"04/02/08","18:08:01",133764.000,"cc",28299.893,6.00,6,0.100,65305.000,0.200,62819.000,0.300,3880.000,0.500,1336.000,1.000,424.000,5.000,0
"04/02/08","18:08:07",169904.000,"cc",28298.438,6.00,6,0.100,93673.000,0.200,70176.000,0.300,4320.000,0.500,1306.000,1.000,429.000,5.000,0
"04/02/08","18:08:13",207130.000,"cc",28299.695,6.00,6,0.100,113515.000,0.200,86663.000,0.300,5135.000,0.500,1386.000,1.000,431.000,5.000,0
"04/02/08","18:08:19",202050.000,"cc",28292.197,6.00,6,0.100,111991.000,0.200,83613.000,0.300,4737.000,0.500,1281.000,1.000,428.000,5.000,0
"04/02/08","18:08:25",216275.000,"cc",28330.084,6.00,6,0.100,146388.000,0.200,64578.000,0.300,3732.000,0.500,1180.000,1.000,397.000,5.000,0
"04/02/08","18:08:31",355792.000,"cc",28350.127,6.00,6,0.100,301005.000,0.200,50072.000,0.300,3123.000,0.500,1207.000,1.000,385.000,5.000,0
"04/02/08","18:08:37",351378.000,"cc",28292.820,6.00,6,0.100,298426.000,0.200,48443.000,0.300,2994.000,0.500,1127.000,1.000,388.000,5.000,0
"04/02/08","18:08:43",243443.000,"cc",28327.164,6.00,6,0.100,180749.000,0.200,57934.000,0.300,3254.000,0.500,1140.000,1.000,366.000,5.000,0
"04/02/08","18:08:49",302920.000,"cc",28342.115,6.00,6,0.100,270476.000,0.200,28937.000,0.300,2079.000,0.500,1088.000,1.000,340.000,5.000,0
"04/02/08","18:08:55",308837.000,"cc",28344.154,6.00,6,0.100,274767.000,0.200,30054.000,0.300,2315.000,0.500,1273.000,1.000,428.000,5.000,0
"04/02/08","18:09:01",321900.000,"cc",28263.348,6.00,6,0.100,283879.000,0.200,32888.000,0.300,2927.000,0.500,1656.000,1.000,550.000,5.000,0
"04/02/08","18:09:07",391876.000,"cc",28323.793,6.00,6,0.100,341958.000,0.200,44921.000,0.300,3182.000,0.500,1362.000,1.000,453.000,5.000,0
"04/02/08","18:09:13",249051.000,"cc",28297.393,6.00,6,0.100,189633.000,0.200,54808.000,0.300,3144.000,0.500,1111.000,1.000,355.000,5.000,0
"04/02/08","18:09:19",186466.000,"cc",28343.096,6.00,6,0.100,104579.000,0.200,75800.000,0.300,4397.000,0.500,1293.000,1.000,397.000,5.000,0
"04/02/08","18:09:25",166608.000,"cc",28338.383,6.00,6,0.100,92776.000,0.200,68438.000,0.300,3837.000,0.500,1177.000,1.000,380.000,5.000,0
"04/02/08","18:09:31",378333.000,"cc",28305.994,6.00,6,0.100,317781.000,0.200,55412.000,0.300,3524.000,0.500,1212.000,1.000,404.000,5.000,0
"04/02/08","18:09:37",238083.000,"cc",28320.838,6.00,6,0.100,180437.000,0.200,52734.000,0.300,3277.000,0.500,1250.000,1.000,385.000,5.000,0
"04/02/08","18:09:43",267322.000,"cc",28352.967,6.00,6,0.100,200829.000,0.200,60199.000,0.300,4092.000,0.500,1655.000,1.000,547.000,5.000,0
"04/02/08","18:09:49",286389.000,"cc",28327.781,6.00,6,0.100,229503.000,0.200,51818.000,0.300,3383.000,0.500,1255.000,1.000,430.000,5.000,0
"04/02/08","18:09:55",336824.000,"cc",28282.359,6.00,6,0.100,267176.000,0.200,63828.000,0.300,3982.000,0.500,1401.000,1.000,437.000,5.000,0
"04/02/08","18:10:01",147427.000,"cc",28332.096,6.00,6,0.100,78596.000,0.200,62871.000,0.300,3967.000,0.500,1488.000,1.000,505.000,5.000,0
"04/02/08","18:10:07",144885.000,"cc",28305.135,6.00,6,0.100,77762.000,0.200,61609.000,0.300,3721.000,0.500,1343.000,1.000,450.000,5.000,0
"04/02/08","18:10:13",380504.000,"cc",28398.621,6.00,6,0.100,321081.000,0.200,54758.000,0.300,3206.000,0.500,1110.000,1.000,349.000,5.000,0
"04/02/08","18:10:19",257861.000,"cc",28290.418,6.00,6,0.100,195052.000,0.200,57500.000,0.300,3591.000,0.500,1284.000,1.000,434.000,5.000,0
"04/02/08","18:10:25",352263.000,"cc",28334.268,6.00,6,0.100,297504.000,0.200,49670.000,0.300,3250.000,0.500,1361.000,1.000,478.000,5.000,0
"04/02/08","18:10:31",188523.000,"cc",28296.951,6.00,6,0.100,126497.000,0.200,57042.000,0.300,3369.000,0.500,1236.000,1.000,379.000,5.000,0
"04/02/08","18:10:37",353401.000,"cc",28287.420,6.00,6,0.100,298198.000,0.200,50091.000,0.300,3281.000,0.500,1397.000,1.000,434.000,5.000,0
"04/02/08","18:10:43",286405.000,"cc",28210.457,6.00,6,0.100,255293.000,0.200,27427.000,0.300,2144.000,0.500,1190.000,1.000,351.000,5.000,0
"04/02/08","18:10:49",247520.000,"cc",28351.725,6.00,6,0.100,221258.000,0.200,22881.000,0.300,1878.000,0.500,1118.000,1.000,385.000,5.000,0
"04/02/08","18:10:55",173107.000,"cc",28290.912,6.00,6,0.100,156295.000,0.200,13992.000,0.300,1503.000,0.500,983.000,1.000,334.000,5.000,0
"04/02/08","18:11:01",228111.000,"cc",28323.285,6.00,6,0.100,205203.000,0.200,19898.000,0.300,1716.000,0.500,965.000,1.000,329.000,5.000,0
"04/02/08","18:11:07",253261.000,"cc",28318.760,6.00,6,0.100,229878.000,0.200,20436.000,0.300,1697.000,0.500,961.000,1.000,289.000,5.000,0
"04/02/08","18:11:13",220903.000,"cc",28266.186,6.00,6,0.100,202116.000,0.200,15921.000,0.300,1490.000,0.500,1017.000,1.000,359.000,5.000,0
"04/02/08","18:11:19",273565.000,"cc",28322.850,6.00,6,0.100,245497.000,0.200,24177.000,0.300,2111.000,0.500,1335.000,1.000,445.000,5.000,0
"04/02/08","18:11:25",355579.000,"cc",28343.531,6.00,6,0.100,314247.000,0.200,37068.000,0.300,2697.000,0.500,1191.000,1.000,376.000,5.000,0
"04/02/08","18:11:31",333176.000,"cc",28372.410,6.00,6,0.100,283114.000,0.200,45030.000,0.300,3141.000,0.500,1452.000,1.000,439.000,5.000,0
"04/02/08","18:11:37",235521.000,"cc",28278.035,6.00,6,0.100,156520.000,0.200,72492.000,0.300,4640.000,0.500,1433.000,1.000,436.000,5.000,0
"04/02/08","18:11:43",220798.000,"cc",28340.440,6.00,6,0.100,144893.000,0.200,69822.000,0.300,4380.000,0.500,1267.000,1.000,436.000,5.000,0
"04/02/08","18:11:49",333178.000,"cc",28311.150,6.00,6,0.100,282604.000,0.200,45833.000,0.300,3083.000,0.500,1242.000,1.000,416.000,5.000,0
"04/02/08","18:11:55",323718.000,"cc",28268.164,6.00,6,0.100,272574.000,0.200,46591.000,0.300,2990.000,0.500,1182.000,1.000,381.000,5.000,0
"04/02/08","18:12:01",191290.000,"cc",28315.908,6.00,6,0.100,127794.000,0.200,58412.000,0.300,3594.000,0.500,1123.000,1.000,367.000,5.000,0
"04/02/08","18:12:07",323758.000,"cc",28324.102,6.00,6,0.100,274721.000,0.200,44507.000,0.300,3014.000,0.500,1153.000,1.000,363.000,5.000,0
"04/02/08","18:12:13",352827.000,"cc",28279.285,6.00,6,0.100,310814.000,0.200,37682.000,0.300,2750.000,0.500,1157.000,1.000,424.000,5.000,0
"04/02/08","18:12:19",234269.000,"cc",28336.676,6.00,6,0.100,174906.000,0.200,54435.000,0.300,3393.000,0.500,1184.000,1.000,351.000,5.000,0
"04/02/08","18:12:25",196016.000,"cc",28378.443,6.00,6,0.100,130268.000,0.200,59889.000,0.300,3888.000,0.500,1526.000,1.000,445.000,5.000,0
"04/02/08","18:12:31",386720.000,"cc",28263.307,6.00,6,0.100,323858.000,0.200,57437.000,0.300,3597.000,0.500,1378.000,1.000,450.000,5.000,0
"04/02/08","18:12:37",302464.000,"cc",28299.139,6.00,6,0.100,244654.000,0.200,52503.000,0.300,3556.000,0.500,1316.000,1.000,435.000,5.000,0
"04/02/08","18:12:43",364204.000,"cc",28253.590,6.00,6,0.100,305031.000,0.200,53208.000,0.300,3867.000,0.500,1594.000,1.000,504.000,5.000,0
"04/02/08","18:12:49",172575.000,"cc",28332.537,6.00,6,0.100,112211.000,0.200,54453.000,0.300,3806.000,0.500,1612.000,1.000,493.000,5.000,0
"04/02/08","18:12:55",318458.000,"cc",28371.397,6.00,6,0.100,252928.000,0.200,59149.000,0.300,4128.000,0.500,1681.000,1.000,572.000,5.000,0
"04/02/08","18:13:01",262128.000,"cc",28322.635,6.00,6,0.100,221465.000,0.200,35630.000,0.300,2927.000,0.500,1617.000,1.000,489.000,5.000,0
"04/02/08","18:13:07",217264.000,"cc",28283.670,6.00,6,0.100,194095.000,0.200,19162.000,0.300,2149.000,0.500,1383.000,1.000,475.000,5.000,0
"04/02/08","18:13:13",240615.000,"cc",28274.678,6.00,6,0.100,214252.000,0.200,22370.000,0.300,2156.000,0.500,1413.000,1.000,424.000,5.000,0
"04/02/08","18:13:19",137076.000,"cc",28350.346,6.00,6,0.100,121969.000,0.200,11462.000,0.300,1742.000,0.500,1386.000,1.000,517.000,5.000,0
"04/02/08","18:13:25",193221.000,"cc",28333.113,6.00,6,0.100,171932.000,0.200,17012.000,0.300,2184.000,0.500,1554.000,1.000,539.000,5.000,0
"04/02/08","18:13:31",304830.000,"cc",28306.658,6.00,6,0.100,269245.000,0.200,31292.000,0.300,2554.000,0.500,1296.000,1.000,443.000,5.000,0
"04/02/08","18:13:37",273808.000,"cc",28289.969,6.00,6,0.100,242955.000,0.200,26593.000,0.300,2447.000,0.500,1338.000,1.000,475.000,5.000,0
"04/02/08","18:13:43",309322.000,"cc",28331.127,6.00,6,0.100,272670.000,0.200,31981.000,0.300,2635.000,0.500,1516.000,1.000,520.000,5.000,0
"04/02/08","18:13:49",328921.000,"cc",28292.322,6.00,6,0.100,290467.000,0.200,34058.000,0.300,2576.000,0.500,1414.000,1.000,406.000,5.000,0
"04/02/08","18:13:55",341646.000,"cc",28302.369,6.00,6,0.100,286185.000,0.200,50431.000,0.300,3299.000,0.500,1322.000,1.000,409.000,5.000,0
"04/02/08","18:14:01",293152.000,"cc",28311.754,6.00,6,0.100,248230.000,0.200,39945.000,0.300,3032.000,0.500,1484.000,1.000,461.000,5.000,0
"04/02/08","18:14:07",327244.000,"cc",28344.381,6.00,6,0.100,286738.000,0.200,35013.000,0.300,3197.000,0.500,1750.000,1.000,546.000,5.000,0
"04/02/08","18:14:13",319351.000,"cc",28336.473,6.00,6,0.100,280740.000,0.200,34020.000,0.300,2657.000,0.500,1471.000,1.000,463.000,5.000,0
"04/02/08","18:14:19",226507.000,"cc",28352.645,6.00,6,0.100,201814.000,0.200,20696.000,0.300,2157.000,0.500,1368.000,1.000,472.000,5.000,0
"04/02/08","18:14:25",260125.000,"cc",28264.600,6.00,6,0.100,229915.000,0.200,25804.000,0.300,2454.000,0.500,1443.000,1.000,509.000,5.000,0
"04/02/08","18:14:31",293062.000,"cc",28285.147,6.00,6,0.100,258964.000,0.200,29936.000,0.300,2400.000,0.500,1301.000,1.000,461.000,5.000,0
"04/02/08","18:14:37",294221.000,"cc",28309.457,6.00,6,0.100,260731.000,0.200,29406.000,0.300,2398.000,0.500,1283.000,1.000,403.000,5.000,0
"04/02/08","18:14:43",291619.000,"cc",28301.090,6.00,6,0.100,256880.000,0.200,29941.000,0.300,2762.000,0.500,1516.000,1.000,520.000,5.000,0
"04/02/08","18:14:49",274832.000,"cc",28242.850,6.00,6,0.100,242207.000,0.200,28561.000,0.300,2334.000,0.500,1285.000,1.000,445.000,5.000,0
"04/02/08","18:14:55",263736.000,"cc",28387.742,6.00,6,0.100,233149.000,0.200,26041.000,0.300,2625.000,0.500,1453.000,1.000,468.000,5.000,0
"04/02/08","18:15:01",227840.000,"cc",28380.805,6.00,6,0.100,201150.000,0.200,22240.000,0.300,2471.000,0.500,1505.000,1.000,474.000,5.000,0
"04/02/08","18:15:07",197064.000,"cc",28288.199,6.00,6,0.100,175768.000,0.200,17721.000,0.300,1966.000,0.500,1196.000,1.000,413.000,5.000,0
"04/02/08","18:15:13",257357.000,"cc",28378.506,6.00,6,0.100,227376.000,0.200,25627.000,0.300,2462.000,0.500,1447.000,1.000,445.000,5.000,0
"04/02/08","18:15:19",224492.000,"cc",28334.713,6.00,6,0.100,173925.000,0.200,45231.000,0.300,3486.000,0.500,1403.000,1.000,447.000,5.000,0
"04/02/08","18:15:25",348830.000,"cc",28318.738,6.00,6,0.100,304725.000,0.200,39632.000,0.300,2974.000,0.500,1118.000,1.000,381.000,5.000,0
"04/02/08","18:15:31",265207.000,"cc",28337.213,6.00,6,0.100,224275.000,0.200,36462.000,0.300,2812.000,0.500,1251.000,1.000,407.000,5.000,0
"04/02/08","18:15:37",289723.000,"cc",28336.734,6.00,6,0.100,254447.000,0.200,30346.000,0.300,2898.000,0.500,1512.000,1.000,520.000,5.000,0
"04/02/08","18:15:43",230195.000,"cc",28296.684,6.00,6,0.100,203653.000,0.200,21930.000,0.300,2513.000,0.500,1592.000,1.000,507.000,5.000,0
"04/02/08","18:15:49",242715.000,"cc",28294.703,6.00,6,0.100,215034.000,0.200,23989.000,0.300,2117.000,0.500,1181.000,1.000,394.000,5.000,0
"04/02/08","18:15:55",318976.000,"cc",28228.320,6.00,6,0.100,280831.000,0.200,34174.000,0.300,2524.000,0.500,1115.000,1.000,332.000,5.000,0
"04/02/08","18:16:01",258509.000,"cc",28238.045,6.00,6,0.100,230190.000,0.200,24740.000,0.300,2125.000,0.500,1058.000,1.000,395.000,5.000,1.000